period_start,C,m1,H,J0,J1,J2,J3,J4,J5,JA,JB,JC,JD,JJ,JK,JN,#
2016-05-30 00:04:32,-0.01,0.33,0.00,26.23,29.72,32.66,14.25,47.64,1010.74,2027.34,3386.10,3033.77,3444.34,600.11,586.27,16.23,0000 0000 0000 0000 000000
2016-05-30 00:09:33,0.02,0.33,0.00,26.26,29.75,32.71,14.23,47.73,1010.69,2027.15,3385.38,3033.06,3443.95,599.97,585.96,16.28,0000 0000 0000 0000 000000
2016-05-30 00:14:35,0.02,0.33,0.00,26.29,29.76,32.73,14.27,47.66,1010.49,2027.04,3384.79,3032.74,3443.15,600.05,585.96,16.33,0000 0000 0000 0000 000000
2016-05-30 00:19:36,0.03,0.33,0.00,26.32,29.77,32.73,14.19,47.58,1010.33,2027.02,3384.00,3032.04,3442.67,599.85,585.47,16.38,0000 0000 0000 0000 000000
2016-05-30 00:24:37,0.03,0.33,0.00,26.35,29.80,32.76,14.23,47.75,1010.58,2027.00,3383.14,3031.61,3441.99,599.87,585.69,16.43,0000 0000 0000 0000 000000
2016-05-30 00:29:38,0.03,0.34,0.00,26.38,29.82,32.83,14.25,47.60,1010.68,2027.00,3382.36,3030.99,3441.25,600.31,586.16,16.48,0000 0000 0000 0000 000000
2016-05-30 00:34:39,0.04,0.34,0.00,26.41,29.84,32.79,14.20,47.67,1010.71,2027.00,3381.56,3030.29,3440.71,599.79,585.58,16.53,0000 0000 0000 0000 000000
2016-05-30 00:39:41,0.02,0.34,0.00,26.42,29.86,32.80,14.23,47.72,1010.75,2026.98,3380.78,3029.90,3440.02,600.19,585.96,16.58,0000 0000 0000 0000 000000
2016-05-30 00:44:42,0.04,0.34,0.00,26.40,29.88,32.86,14.30,47.72,1010.75,2026.97,3379.97,3029.14,3439.41,600.03,585.90,16.63,0000 0000 0000 0000 000000
2016-05-30 00:49:43,0.03,0.34,0.00,26.43,29.90,32.97,14.29,47.69,1010.76,2026.94,3379.08,3028.72,3438.77,600.01,585.82,16.68,0000 0000 0000 0000 000000
2016-05-30 00:54:45,0.02,0.35,0.00,26.46,29.92,33.18,14.22,47.77,1010.76,2026.79,3378.11,3028.01,3437.99,599.86,585.61,16.73,0000 0000 0000 0000 000000
2016-05-30 00:59:46,0.00,0.35,0.00,26.44,29.95,33.02,14.29,47.87,1010.76,2026.32,3377.10,3027.22,3437.13,599.89,585.72,16.78,0000 0000 0000 0000 000000
2016-05-30 01:04:47,0.02,0.35,0.00,26.44,29.97,33.08,14.24,47.88,1010.76,2026.07,3376.19,3026.79,3436.51,600.15,585.94,16.83,0000 0000 0000 0000 000000
2016-05-30 01:09:49,0.03,0.35,0.00,26.44,30.00,33.16,14.26,47.84,1010.76,2026.02,3375.26,3026.03,3435.86,599.99,585.80,16.88,0000 0000 0000 0000 000000
2016-05-30 01:14:50,0.04,0.35,0.00,26.47,30.01,33.23,14.26,47.93,1010.75,2026.00,3374.38,3025.34,3435.05,600.11,585.86,16.93,0000 0000 0000 0000 000000
2016-05-30 01:19:51,0.04,0.35,0.00,26.50,30.03,33.29,14.25,47.87,1010.75,2026.00,3373.34,3024.74,3434.27,599.80,585.40,16.98,0000 0000 0000 0000 000000
2016-05-30 01:24:52,0.04,0.36,0.00,26.50,30.05,33.28,14.26,47.79,1010.66,2026.00,3372.10,3023.99,3433.30,600.16,585.79,17.03,0000 0000 0000 0000 000000
2016-05-30 01:29:54,0.05,0.36,0.00,26.50,30.06,33.26,14.18,47.70,1010.55,2025.99,3370.91,3023.15,3432.54,599.96,585.58,17.08,0000 0000 0000 0000 000000
2016-05-30 01:34:55,0.04,0.36,0.00,26.50,30.07,33.13,14.27,47.63,1010.52,2025.99,3369.85,3022.45,3431.83,599.99,585.50,17.13,0000 0000 0000 0000 000000
2016-05-30 01:39:56,0.03,0.36,0.00,26.50,30.09,33.18,14.14,47.60,1010.50,2025.99,3368.75,3021.85,3431.02,599.58,585.05,17.18,0000 0000 0000 0000 000000
2016-05-30 01:44:58,0.04,0.37,0.00,26.53,30.10,33.28,14.28,47.63,1010.38,2025.96,3367.65,3021.05,3430.14,600.16,585.55,17.23,0000 0000 0000 0000 000000
2016-05-30 01:49:59,0.05,0.37,0.00,26.56,30.11,33.36,14.22,47.71,1010.46,2025.94,3366.69,3020.26,3429.30,600.02,585.47,17.28,0000 0000 0000 0000 000000
2016-05-30 01:55:00,0.03,0.37,0.00,26.55,30.12,33.43,14.20,47.72,1010.44,2025.89,3365.71,3019.77,3428.70,599.81,585.28,17.33,0000 0000 0000 0000 000000
2016-05-30 02:00:01,0.03,0.37,0.00,26.55,30.15,33.40,14.28,47.72,1010.49,2025.77,3364.74,3019.03,3427.96,600.20,585.58,17.38,0000 0000 0000 0000 000000
2016-05-30 02:05:03,0.00,0.37,0.00,26.53,30.16,33.24,14.25,47.74,1010.37,2025.31,3363.78,3018.37,3427.15,600.24,585.62,17.43,0000 0000 0000 0000 000000
2016-05-30 02:10:04,0.03,0.37,0.00,26.49,30.17,33.32,14.27,47.70,1010.39,2025.33,3362.87,3017.94,3426.61,600.04,585.51,17.48,0000 0000 0000 0000 000000
2016-05-30 02:15:05,0.04,0.38,0.00,26.41,30.19,33.40,14.19,47.71,1010.35,2025.22,3361.91,3017.16,3425.95,599.73,585.40,17.53,0000 0000 0000 0000 000000
2016-05-30 02:20:06,0.04,0.38,0.00,26.24,30.20,33.42,14.29,47.75,1010.40,2025.20,3360.96,3016.77,3425.17,599.95,585.94,17.58,0000 0000 0000 0000 000000
2016-05-30 02:25:08,0.03,0.38,0.00,26.13,30.20,33.36,14.25,47.75,1010.60,2025.16,3359.98,3016.03,3424.63,599.87,586.23,17.63,0000 0000 0000 0000 000000
2016-05-30 02:30:09,0.03,0.38,0.00,26.14,30.20,33.37,14.28,47.72,1010.57,2025.06,3358.93,3015.39,3423.92,600.04,586.24,17.68,0000 0000 0000 0000 000000
2016-05-30 02:35:10,0.03,0.38,0.00,26.15,30.20,33.38,14.25,47.73,1010.42,2025.05,3357.96,3014.95,3423.08,599.70,586.12,17.73,0000 0000 0000 0000 000000
2016-05-30 02:40:11,0.05,0.39,0.00,26.15,30.18,33.22,14.32,47.66,1010.30,2025.10,3357.07,3014.20,3422.60,600.11,586.19,17.78,0000 0000 0000 0000 000000
2016-05-30 02:45:13,0.03,0.39,0.00,26.19,30.17,33.14,14.21,47.58,1010.29,2025.20,3356.18,3013.98,3422.01,599.81,585.78,17.83,0000 0000 0000 0000 000000
2016-05-30 02:50:14,0.06,0.39,0.00,26.24,30.17,33.11,14.20,47.58,1010.30,2025.37,3355.44,3013.30,3421.56,600.01,585.88,17.88,0000 0000 0000 0000 000000
2016-05-30 02:55:15,0.02,0.39,0.00,26.37,30.15,33.24,14.30,47.61,1010.29,2025.41,3354.56,3012.95,3420.96,599.95,585.62,17.93,0000 0000 0000 0000 000000
2016-05-30 03:00:16,0.06,0.39,0.00,26.45,30.15,33.29,14.24,47.60,1010.29,2025.38,3353.64,3012.22,3420.20,600.00,585.50,17.98,0000 0000 0000 0000 000000
2016-05-30 03:05:18,0.02,0.40,0.00,26.53,30.15,33.28,14.22,47.62,1010.27,2025.57,3352.93,3011.95,3419.89,599.98,585.32,18.03,0000 0000 0000 0000 000000
2016-05-30 03:10:19,0.04,0.40,0.00,26.59,30.16,33.20,14.26,47.58,1010.27,2025.50,3352.07,3011.21,3419.12,600.14,585.39,18.08,0000 0000 0000 0000 000000
2016-05-30 03:15:20,0.01,0.40,0.00,26.66,30.17,33.09,14.17,47.66,1010.29,2025.19,3351.20,3010.73,3418.46,599.98,585.12,18.13,0000 0000 0000 0000 000000
2016-05-30 03:20:21,0.03,0.40,0.00,26.66,30.19,33.08,14.32,47.86,1010.31,2025.12,3350.51,3010.05,3417.99,600.36,585.45,18.18,0000 0000 0000 0000 000000
2016-05-30 03:25:22,0.03,0.40,0.00,26.52,30.20,33.11,14.27,47.97,1010.36,2025.11,3349.70,3009.79,3417.29,600.14,585.54,18.23,0000 0000 0000 0000 000000
2016-05-30 03:30:23,0.03,0.40,0.00,26.40,30.22,33.03,14.27,47.98,1010.37,2025.03,3348.76,3009.03,3416.78,599.97,585.63,18.28,0000 0000 0000 0000 000000
2016-05-30 03:35:24,0.04,0.41,0.00,26.36,30.24,32.94,14.20,47.92,1010.32,2025.01,3347.88,3008.52,3416.02,599.88,585.55,18.33,0000 0000 0000 0000 000000
2016-05-30 03:40:25,0.03,0.41,0.00,26.39,30.26,32.88,14.29,47.83,1010.34,2025.00,3346.98,3008.00,3415.28,600.22,585.85,18.38,0000 0000 0000 0000 000000
2016-05-30 03:45:26,0.04,0.41,0.00,26.39,30.29,32.88,14.23,47.88,1010.45,2025.00,3346.08,3007.38,3414.72,600.32,586.02,18.43,0000 0000 0000 0000 000000
2016-05-30 03:50:28,0.02,0.41,0.00,26.35,30.31,32.94,14.27,48.42,1010.68,2025.00,3345.17,3006.96,3414.01,600.18,586.02,18.48,0000 0000 0000 0000 000000
2016-05-30 03:55:29,0.05,0.41,0.00,26.30,30.33,33.01,14.21,48.42,1010.53,2024.98,3344.22,3006.17,3413.22,600.08,586.02,18.53,0000 0000 0000 0000 000000
2016-05-30 04:00:30,0.03,0.41,0.00,26.26,30.36,33.03,14.34,48.37,1010.38,2024.97,3343.36,3005.76,3412.64,600.37,586.37,18.58,0000 0000 0000 0000 000000
2016-05-30 04:05:32,0.03,0.42,0.00,26.25,30.37,33.06,14.25,48.42,1010.32,2024.98,3342.60,3005.05,3412.01,600.02,586.01,18.63,0000 0000 0000 0000 000000
2016-05-30 04:10:34,0.03,0.42,0.00,26.22,30.39,33.11,14.25,48.20,1010.31,2024.94,3341.74,3004.66,3411.35,599.90,585.86,18.68,0000 0000 0000 0000 000000
2016-05-30 04:15:35,0.02,0.42,0.00,26.20,30.40,33.12,14.21,48.14,1010.30,2024.88,3340.97,3004.03,3410.88,599.90,585.92,18.73,0000 0000 0000 0000 000000
2016-05-30 04:20:36,0.03,0.42,0.00,26.16,30.40,33.10,14.26,48.10,1010.28,2024.78,3340.12,3003.71,3410.08,599.95,586.03,18.78,0000 0000 0000 0000 000000
2016-05-30 04:25:37,0.04,0.42,0.00,26.11,30.40,33.06,14.25,48.06,1010.27,2024.88,3339.36,3003.05,3409.94,599.52,585.83,18.83,0000 0000 0000 0000 000000
2016-05-30 04:30:38,0.02,0.42,0.00,26.08,30.40,33.04,14.23,48.08,1010.29,2024.94,3338.81,3002.94,3409.30,599.39,585.63,18.88,0000 0000 0000 0000 000000
2016-05-30 04:35:40,0.03,0.43,0.00,26.03,30.39,33.13,14.29,48.14,1010.27,2024.92,3338.02,3002.21,3408.98,600.26,586.66,18.93,0000 0000 0000 0000 000000
2016-05-30 04:40:41,0.03,0.43,0.00,25.95,30.37,33.28,14.29,48.13,1010.27,2024.96,3337.19,3001.99,3408.27,600.18,586.59,18.98,0000 0000 0000 0000 000000
2016-05-30 04:45:43,0.04,0.43,0.00,25.91,30.35,33.28,14.32,48.19,1010.27,2024.97,3336.35,3001.47,3407.98,600.00,586.54,19.03,0000 0000 0000 0000 000000
2016-05-30 04:50:44,0.02,0.43,0.00,25.88,30.32,33.24,14.24,48.12,1010.23,2024.98,3335.83,3001.02,3407.49,599.66,586.25,19.08,0000 0000 0000 0000 000000
2016-05-30 04:55:45,0.01,0.43,0.00,25.86,30.29,33.16,14.26,48.17,1009.99,2024.99,3335.04,3000.98,3407.01,600.05,586.51,19.13,0000 0000 0000 0000 000000
2016-05-30 05:00:47,0.00,0.43,0.00,25.85,30.26,33.09,14.32,48.25,1010.21,2024.99,3334.93,3000.79,3406.98,600.09,586.78,19.18,0000 0000 0000 0000 000000
2016-05-30 05:05:48,0.02,0.43,0.00,25.85,30.22,33.01,14.34,48.23,1010.25,2024.99,3334.34,3000.58,3406.89,600.01,586.64,19.23,0000 0000 0000 0000 000000
2016-05-30 05:10:50,0.03,0.44,0.00,25.87,30.18,32.94,14.28,48.24,1010.22,2025.00,3333.94,3000.08,3406.26,600.14,586.60,19.28,0000 0000 0000 0000 000000
2016-05-30 05:15:51,0.02,0.44,0.00,25.89,30.13,32.84,14.37,48.21,1009.98,2025.09,3333.15,3000.01,3406.03,600.12,586.63,19.33,0000 0000 0000 0000 000000
2016-05-30 05:20:52,0.07,0.44,0.00,25.91,30.09,32.80,14.19,47.96,1009.98,2025.68,3332.64,2999.99,3406.00,599.64,586.11,19.39,0000 0000 0000 0000 000000
2016-05-30 05:25:53,0.02,0.44,0.00,25.92,30.05,32.76,14.38,47.95,1009.91,2025.96,3331.99,2999.86,3405.92,600.18,586.48,19.43,0000 0000 0000 0000 000000
2016-05-30 05:30:54,0.03,0.44,0.00,25.95,30.00,32.73,14.32,48.03,1009.90,2025.99,3331.42,2999.44,3405.55,600.26,586.56,19.48,0000 0000 0000 0000 000000
2016-05-30 05:35:55,0.01,0.45,0.00,25.95,29.96,32.66,14.32,48.08,1009.84,2025.99,3331.00,2999.04,3405.07,600.38,586.55,19.53,0000 0000 0000 0000 000000
2016-05-30 05:40:57,0.02,0.45,0.00,25.93,29.92,32.63,14.26,48.02,1009.88,2026.01,3330.41,2999.00,3405.00,600.22,586.54,19.59,0000 0000 0000 0000 000000
2016-05-30 05:45:58,0.02,0.45,0.00,25.88,29.89,32.58,14.24,48.11,1009.85,2026.21,3330.00,2998.99,3404.98,600.03,586.40,19.64,0000 0000 0000 0000 000000
2016-05-30 05:50:59,0.08,0.45,0.00,25.83,29.85,32.57,14.31,48.21,1009.80,2026.78,3329.34,2998.84,3404.69,600.06,586.43,19.69,0000 0000 0000 0000 000000
2016-05-30 05:56:00,0.03,0.45,0.00,25.82,29.82,32.54,14.23,48.02,1009.79,2026.97,3329.00,2998.24,3404.14,599.91,586.23,19.74,0000 0000 0000 0000 000000
2016-05-30 06:01:02,0.01,0.45,0.00,25.79,29.79,32.50,14.28,47.98,1009.78,2026.99,3328.32,2998.01,3404.00,599.92,586.44,19.79,0000 0000 0000 0000 000000
2016-05-30 06:06:03,0.00,0.45,0.00,25.76,29.76,32.49,14.24,47.98,1009.80,2026.99,3327.97,2997.99,3403.99,599.89,586.49,19.84,0000 0000 0000 0000 000000
2016-05-30 06:11:04,0.02,0.46,0.00,25.75,29.73,32.45,14.36,48.11,1009.79,2027.01,3327.35,2997.95,3403.69,600.42,586.92,19.89,0000 0000 0000 0000 000000
2016-05-30 06:16:05,0.05,0.46,0.00,25.77,29.70,32.42,14.33,47.93,1009.79,2027.25,3326.98,2997.51,3403.10,600.28,586.88,19.94,0000 0000 0000 0000 000000
2016-05-30 06:21:07,0.06,0.46,0.00,25.84,29.67,32.39,14.23,47.92,1009.78,2027.75,3326.33,2997.08,3403.00,599.97,586.44,19.99,0000 0000 0000 0000 000000
2016-05-30 06:26:08,0.02,0.46,0.00,25.83,29.65,32.32,14.28,47.73,1009.79,2027.95,3325.99,2997.00,3402.97,600.27,586.67,20.04,0000 0000 0000 0000 000000
2016-05-30 06:31:09,0.02,0.46,0.00,25.81,29.63,32.30,14.23,47.79,1009.79,2027.98,3325.28,2996.96,3402.37,600.10,586.49,20.09,0000 0000 0000 0000 000000
2016-05-30 06:36:10,0.02,0.46,0.00,25.77,29.61,32.34,14.27,47.95,1009.81,2027.99,3324.88,2996.62,3402.02,600.03,586.49,20.14,0000 0000 0000 0000 000000
2016-05-30 06:41:12,0.02,0.47,0.00,25.77,29.60,32.29,14.19,47.90,1009.83,2027.99,3324.11,2996.07,3401.98,600.08,586.63,20.19,0000 0000 0000 0000 000000
2016-05-30 06:46:13,0.01,0.47,0.00,25.81,29.57,32.22,14.40,47.86,1009.90,2027.99,3323.79,2996.00,3401.53,600.36,586.96,20.24,0000 0000 0000 0000 000000
2016-05-30 06:51:15,0.01,0.47,0.00,25.83,29.56,32.17,14.23,47.90,1010.11,2028.01,3323.07,2995.88,3401.03,599.98,586.75,20.29,0000 0000 0000 0000 000000
2016-05-30 06:56:16,0.03,0.47,0.00,25.85,29.55,32.07,14.29,48.03,1010.25,2028.00,3322.70,2995.15,3400.96,600.02,586.70,20.34,0000 0000 0000 0000 000000
2016-05-30 07:01:17,0.05,0.47,0.00,25.85,29.55,32.02,14.18,48.01,1010.27,2028.02,3321.68,2994.70,3400.09,600.12,586.81,20.39,0000 0000 0000 0000 000000
2016-05-30 07:06:18,0.49,0.49,0.00,25.82,29.52,32.03,14.29,48.01,1010.27,2028.04,3314.61,2989.00,3394.07,600.23,586.94,20.44,0000 0000 0000 0000 000000
2016-05-30 07:11:19,1.18,0.53,0.00,25.74,29.51,32.05,14.30,47.89,1010.27,2028.04,3296.97,2973.74,3377.58,600.24,587.06,20.49,0000 0000 0000 0000 000000
2016-05-30 07:16:20,0.22,0.57,0.00,25.69,29.50,32.11,14.36,47.94,1010.27,2028.09,3286.70,2965.14,3368.17,600.20,587.24,20.54,0000 0000 0000 0000 000000
2016-05-30 07:21:22,0.07,0.57,0.00,25.67,29.47,32.14,14.20,47.89,1010.27,2028.48,3285.85,2964.63,3367.91,600.11,587.11,20.59,0000 0000 0000 0000 000000
2016-05-30 07:26:23,0.03,0.57,0.00,25.69,29.45,32.18,14.27,47.88,1010.27,2028.59,3285.04,2964.03,3367.11,599.93,586.92,20.64,0000 0000 0000 0000 000000
2016-05-30 07:31:24,0.05,0.57,0.00,25.70,29.43,32.21,14.24,47.80,1010.27,2028.75,3284.19,2963.81,3366.86,599.76,586.67,20.69,0000 0000 0000 0000 000000
2016-05-30 07:36:25,0.06,0.58,0.00,25.70,29.40,32.20,14.26,47.65,1010.27,2028.95,3283.16,2963.05,3366.08,600.07,587.10,20.74,0000 0000 0000 0000 000000
2016-05-30 07:41:27,0.03,0.58,0.00,25.71,29.38,32.18,14.29,47.79,1010.27,2028.99,3282.25,2962.83,3365.69,599.92,586.84,20.79,0000 0000 0000 0000 000000
2016-05-30 07:46:28,0.04,0.58,0.00,25.72,29.35,32.16,14.23,47.73,1010.27,2028.99,3281.42,2962.08,3365.01,600.01,586.90,20.84,0000 0000 0000 0000 000000
2016-05-30 07:51:29,0.01,0.58,0.00,25.72,29.32,32.14,14.25,47.62,1010.27,2028.99,3280.94,2961.97,3364.65,600.11,587.00,20.89,0000 0000 0000 0000 000000
2016-05-30 07:56:30,0.04,0.58,0.00,25.72,29.30,32.11,14.34,47.71,1010.27,2029.01,3280.18,2961.59,3364.04,600.23,587.14,20.94,0000 0000 0000 0000 000000
2016-05-30 08:01:31,0.01,0.59,0.00,25.73,29.27,32.04,14.31,47.73,1010.28,2029.07,3279.98,2961.09,3364.00,599.92,586.79,20.99,0000 0000 0000 0000 000000
2016-05-30 08:06:33,0.02,0.59,0.00,25.74,29.25,32.02,14.32,47.75,1010.38,2029.12,3279.30,2961.00,3363.79,599.88,586.88,21.04,0000 0000 0000 0000 000000
2016-05-30 08:11:34,0.05,0.59,0.00,25.74,29.24,31.97,14.25,47.73,1010.29,2029.35,3278.65,2960.83,3363.09,599.87,586.77,21.09,0000 0000 0000 0000 000000
2016-05-30 08:16:36,0.07,0.59,0.00,25.75,29.22,31.97,14.28,47.74,1010.29,2029.80,3277.94,2960.09,3362.97,600.06,586.98,21.14,0000 0000 0000 0000 000000
2016-05-30 08:21:37,0.03,0.60,0.00,25.75,29.20,31.90,14.23,47.63,1010.28,2029.97,3277.12,2959.99,3362.39,600.25,587.05,21.19,0000 0000 0000 0000 000000
2016-05-30 08:26:39,0.03,0.60,0.00,25.76,29.20,31.94,14.22,47.65,1010.28,2029.99,3276.49,2959.67,3362.00,599.76,586.68,21.24,0000 0000 0000 0000 000000
2016-05-30 08:31:40,0.02,0.60,0.00,25.77,29.18,31.88,14.21,47.52,1010.28,2029.99,3275.85,2959.06,3361.70,600.35,587.13,21.29,0000 0000 0000 0000 000000
2016-05-30 08:36:41,0.02,0.60,0.00,25.77,29.17,31.82,14.20,47.63,1010.28,2029.99,3275.04,2958.98,3361.03,599.78,586.66,21.34,0000 0000 0000 0000 000000
2016-05-30 08:41:42,0.02,0.60,0.00,25.77,29.17,31.82,14.26,47.62,1010.28,2029.99,3274.75,2958.54,3360.90,600.16,586.98,21.39,0000 0000 0000 0000 000000
2016-05-30 08:46:44,0.03,0.60,0.00,25.77,29.15,31.85,14.31,47.64,1010.28,2029.99,3274.14,2958.04,3360.21,600.46,587.16,21.44,0000 0000 0000 0000 000000
2016-05-30 08:51:45,0.00,0.60,0.00,25.79,29.15,31.80,14.29,47.65,1010.29,2029.99,3273.94,2957.99,3360.00,600.11,586.93,21.49,0000 0000 0000 0000 000000
2016-05-30 08:56:47,0.04,0.60,0.00,25.80,29.15,31.78,14.19,47.58,1010.29,2029.99,3273.08,2957.53,3359.61,599.61,586.41,21.54,0000 0000 0000 0000 000000
2016-05-30 09:01:48,0.02,0.61,0.00,25.80,29.14,31.80,14.23,47.66,1010.33,2029.99,3272.57,2957.03,3359.04,599.67,586.48,21.59,0000 0000 0000 0000 000000
2016-05-30 09:06:49,0.00,0.61,0.00,25.81,29.12,31.79,14.26,47.72,1010.51,2030.01,3272.01,2957.00,3358.99,600.29,587.24,21.64,0000 0000 0000 0000 000000
2016-05-30 09:11:50,0.03,0.61,0.00,25.82,29.12,31.76,14.30,47.63,1010.51,2030.01,3271.43,2956.86,3358.41,600.27,587.12,21.69,0000 0000 0000 0000 000000
2016-05-30 09:16:51,0.02,0.61,0.00,25.82,29.12,31.78,14.20,47.67,1010.33,2030.03,3270.98,2956.20,3358.01,600.07,586.85,21.74,0000 0000 0000 0000 000000
2016-05-30 09:21:53,0.02,0.61,0.00,25.82,29.12,31.76,14.24,47.68,1010.33,2030.04,3270.17,2956.00,3357.76,600.00,586.76,21.79,0000 0000 0000 0000 000000
2016-05-30 09:26:54,0.03,0.61,0.00,25.83,29.12,31.77,14.22,47.68,1010.29,2030.12,3269.65,2955.75,3357.07,600.20,586.84,21.84,0000 0000 0000 0000 000000
2016-05-30 09:31:55,0.02,0.61,0.00,25.84,29.12,31.78,14.23,47.71,1010.29,2030.11,3269.00,2955.06,3356.90,599.96,586.69,21.89,0000 0000 0000 0000 000000
2016-05-30 09:36:57,0.03,0.62,0.00,25.85,29.12,31.79,14.31,47.64,1010.54,2030.09,3268.17,2954.93,3356.11,600.37,587.16,21.94,0000 0000 0000 0000 000000
2016-05-30 09:41:58,0.03,0.62,0.00,25.86,29.12,31.78,14.24,47.77,1010.74,2030.12,3267.73,2954.28,3355.95,599.77,586.78,21.99,0000 0000 0000 0000 000000
2016-05-30 09:47:00,0.02,0.62,0.00,25.87,29.12,31.79,14.22,47.81,1010.70,2030.10,3267.04,2954.00,3355.16,599.66,586.59,22.04,0000 0000 0000 0000 000000
2016-05-30 09:52:01,0.03,0.62,0.00,25.86,29.12,31.77,14.18,47.81,1010.44,2030.05,3266.54,2953.65,3354.95,600.15,586.97,22.09,0000 0000 0000 0000 000000
2016-05-30 09:57:02,0.02,0.62,0.00,25.87,29.14,31.77,14.27,47.72,1010.46,2030.03,3265.98,2953.03,3354.18,600.09,586.83,22.14,0000 0000 0000 0000 000000
2016-05-30 10:02:04,0.02,0.62,0.00,25.88,29.15,31.79,14.22,47.67,1010.74,2030.03,3265.20,2952.90,3353.93,600.19,587.11,22.19,0000 0000 0000 0000 000000
2016-05-30 10:07:05,0.04,0.62,0.00,25.88,29.15,31.78,14.25,47.88,1010.71,2030.01,3264.66,2952.19,3353.17,600.34,587.19,22.24,0000 0000 0000 0000 000000
2016-05-30 10:12:06,0.01,0.63,0.00,25.88,29.15,31.79,14.23,47.81,1010.74,2030.01,3264.01,2952.00,3352.97,599.91,586.82,22.29,0000 0000 0000 0000 000000
2016-05-30 10:17:07,0.04,0.63,0.00,25.89,29.15,31.81,14.22,47.77,1010.71,2030.01,3263.36,2951.58,3352.26,599.98,586.83,22.34,0000 0000 0000 0000 000000
2016-05-30 10:22:09,0.01,0.63,0.00,25.90,29.17,31.79,14.23,47.66,1010.74,2030.00,3263.00,2951.02,3351.99,600.41,587.25,22.39,0000 0000 0000 0000 000000
2016-05-30 10:27:10,0.02,0.63,0.00,25.90,29.17,31.81,14.27,47.85,1010.75,2030.00,3262.55,2950.98,3351.51,599.72,586.57,22.44,0000 0000 0000 0000 000000
2016-05-30 10:32:11,0.03,0.63,0.00,25.90,29.17,31.82,14.18,47.67,1010.76,2030.00,3261.99,2950.42,3351.00,599.79,586.65,22.49,0000 0000 0000 0000 000000
2016-05-30 10:37:12,0.02,0.63,0.00,25.90,29.17,31.82,14.29,47.71,1010.73,2030.00,3261.21,2950.00,3350.58,600.11,586.95,22.54,0000 0000 0000 0000 000000
2016-05-30 10:42:14,0.03,0.63,0.00,25.90,29.18,31.83,14.18,47.63,1010.68,2030.00,3260.61,2949.71,3350.01,599.66,586.48,22.59,0000 0000 0000 0000 000000
2016-05-30 10:47:15,0.02,0.63,0.00,25.92,29.20,31.84,14.27,47.66,1010.53,2030.00,3259.98,2949.05,3349.62,599.63,586.40,22.64,0000 0000 0000 0000 000000
2016-05-30 10:52:16,0.02,0.64,0.00,25.90,29.20,31.83,14.23,47.70,1010.39,2030.00,3259.31,2948.99,3349.03,600.00,586.75,22.69,0000 0000 0000 0000 000000
2016-05-30 10:57:18,0.02,0.64,0.00,25.92,29.20,31.84,14.18,47.58,1010.47,2029.99,3259.02,2948.51,3348.84,600.12,586.74,22.74,0000 0000 0000 0000 000000
2016-05-30 11:02:19,0.03,0.64,0.00,25.92,29.20,31.82,14.23,47.64,1010.70,2029.97,3258.21,2948.01,3348.07,599.84,586.62,22.79,0000 0000 0000 0000 000000
2016-05-30 11:07:20,0.03,0.64,0.00,25.92,29.20,31.85,14.23,47.61,1010.70,2029.98,3257.51,2947.70,3347.70,600.00,586.63,22.84,0000 0000 0000 0000 000000
2016-05-30 11:12:21,0.03,0.64,0.00,25.92,29.20,31.84,14.22,47.56,1010.61,2029.99,3256.74,2947.05,3347.03,599.90,586.61,22.89,0000 0000 0000 0000 000000
2016-05-30 11:17:23,0.01,0.64,0.00,25.92,29.20,31.84,14.27,47.59,1010.74,2029.98,3256.05,2946.97,3346.81,600.12,586.92,22.95,0000 0000 0000 0000 000000
2016-05-30 11:22:24,0.03,0.64,0.00,25.91,29.20,31.85,14.25,47.58,1010.76,2029.97,3255.96,2946.50,3346.09,600.02,586.80,23.00,0000 0000 0000 0000 000000
2016-05-30 11:27:25,0.02,0.65,0.00,25.92,29.20,31.85,14.20,47.61,1010.76,2029.98,3255.22,2946.03,3345.99,600.03,586.89,23.05,0000 0000 0000 0000 000000
2016-05-30 11:32:27,0.02,0.65,0.00,25.92,29.20,31.85,14.26,47.67,1010.76,2029.94,3254.63,2945.97,3345.39,600.10,586.83,23.10,0000 0000 0000 0000 000000
2016-05-30 11:37:28,0.03,0.65,0.00,25.92,29.20,31.84,14.28,47.66,1010.76,2029.95,3254.01,2945.46,3345.00,600.33,587.14,23.15,0000 0000 0000 0000 000000
2016-05-30 11:42:29,0.02,0.65,0.00,25.92,29.20,31.85,14.20,47.68,1010.78,2029.97,3253.47,2945.02,3344.79,599.89,586.68,23.20,0000 0000 0000 0000 000000
2016-05-30 11:47:30,0.02,0.65,0.00,25.92,29.20,31.84,14.31,47.65,1010.77,2029.97,3252.85,2944.89,3344.07,600.35,587.05,23.25,0000 0000 0000 0000 000000
2016-05-30 11:52:32,-0.00,0.65,0.00,25.92,29.20,31.87,14.24,47.56,1010.76,2029.69,3252.10,2944.10,3343.67,599.94,586.75,23.30,0000 0000 0000 0000 000000
2016-05-30 11:57:33,0.01,0.65,0.00,25.92,29.20,31.87,14.17,47.57,1010.76,2029.40,3251.50,2943.99,3343.02,599.75,586.65,23.35,0000 0000 0000 0000 000000
2016-05-30 12:02:35,0.03,0.65,0.00,25.92,29.21,31.85,14.21,47.59,1010.76,2029.52,3250.91,2943.56,3342.76,599.78,586.50,23.40,0000 0000 0000 0000 000000
2016-05-30 12:07:36,0.03,0.66,0.00,25.93,29.21,31.86,14.30,47.58,1010.76,2029.54,3250.08,2943.02,3342.07,600.29,587.00,23.45,0000 0000 0000 0000 000000
2016-05-30 12:12:37,0.04,0.66,0.00,25.94,29.21,31.87,14.27,47.59,1010.76,2029.68,3249.34,2942.88,3341.85,600.21,586.95,23.50,0000 0000 0000 0000 000000
2016-05-30 12:17:38,0.05,0.66,0.00,25.93,29.21,31.85,14.23,47.65,1010.76,2029.88,3248.87,2942.16,3341.09,600.08,586.93,23.55,0000 0000 0000 0000 000000
2016-05-30 12:22:40,-0.03,0.66,0.00,25.94,29.21,31.86,14.17,47.62,1010.78,2029.55,3248.19,2942.00,3340.90,599.84,586.54,23.60,0000 0000 0000 0000 000000
2016-05-30 12:27:41,0.02,0.66,0.00,25.95,29.22,31.86,14.22,47.64,1010.78,2029.27,3247.57,2941.44,3340.11,599.89,586.71,23.65,0000 0000 0000 0000 000000
2016-05-30 12:32:42,-0.00,0.66,0.00,25.96,29.22,31.87,14.22,47.56,1010.88,2029.08,3247.06,2941.02,3339.87,599.98,586.78,23.70,0000 0000 0000 0000 000000
2016-05-30 12:37:43,0.01,0.66,0.00,25.96,29.22,31.87,14.17,47.66,1010.87,2029.02,3246.77,2940.94,3339.19,599.98,586.74,23.75,0000 0000 0000 0000 000000
2016-05-30 12:42:44,0.06,0.66,0.00,25.98,29.22,31.87,14.17,47.49,1010.80,2029.00,3245.67,2940.14,3338.62,599.66,586.40,23.80,0000 0000 0000 0000 000000
2016-05-30 12:47:45,0.03,0.67,0.00,25.97,29.22,31.87,14.29,47.53,1010.80,2029.01,3244.65,2939.74,3338.00,600.60,587.35,23.85,0000 0000 0000 0000 000000
2016-05-30 12:52:46,0.03,0.67,0.00,25.97,29.22,31.87,14.26,47.66,1010.77,2029.01,3243.87,2939.03,3337.43,599.53,586.26,23.90,0000 0000 0000 0000 000000
2016-05-30 12:57:48,0.02,0.67,0.00,25.97,29.22,31.86,14.16,47.48,1010.77,2029.05,3243.05,2938.95,3337.01,599.45,586.20,23.95,0000 0000 0000 0000 000000